EHI
70 68 64 59 55 52 52 49 42 37 38 42 43 39 36 35 32 29 29 28 24 17 14 15 14 11 9 6 1 0 0 0 0 0 0 0 0 0 0 0 0 0 0
69 68 64 60 56 52 48 46 42 37 36 40 41 38 36 34 28 26 28 27 21 14 13 15 13 10 9 4 1 0 0 0 0 0 0 0 0 0 0 0 0 1 1
68 66 61 57 54 50 45 42 41 39 36 36 36 35 33 28 22 22 25 24 18 11 11 15 13 9 6 2 0 0 0 0 0 0 0 0 0 0 0 0 0 1 2
66 62 58 54 49 45 41 40 41 41 38 35 34 32 27 22 17 19 23 22 17 11 11 15 15 9 4 1 1 0 0 0 0 0 0 0 0 0 0 0 0 1 1
61 60 56 49 42 37 35 38 40 42 39 35 34 31 24 18 16 19 23 22 18 13 12 16 15 10 4 2 1 1 0 0 0 0 0 0 0 0 0 0 0 0 0
56 55 50 44 38 33 32 35 40 41 37 33 32 29 24 20 19 22 21 19 18 14 13 14 14 10 5 2 1 1 0 0 1 0 0 0 0 0 0 0 0 0 0
53 51 48 44 39 34 34 38 43 42 36 31 28 26 24 22 21 21 18 15 14 14 14 14 13 10 6 3 1 0 0 0 0 0 0 0 0 0 0 0 0 0 0
49 50 49 45 40 36 36 40 44 43 36 29 26 25 23 20 17 16 13 12 12 14 18 20 17 12 6 3 1 0 0 0 0 0 0 0 0 0 0 0 0 0 0
45 47 47 42 37 35 36 39 41 38 30 26 24 23 20 16 13 12 11 11 12 16 22 25 20 13 7 4 3 2 2 1 0 0 0 0 0 0 0 0 0 0 0
40 42 43 39 35 35 37 39 38 32 25 22 21 19 16 14 13 13 14 14 15 18 23 24 20 15 10 7 5 4 3 1 0 0 0 0 0 1 0 0 0 0 0
37 42 44 40 37 38 40 40 37 29 22 20 20 18 15 14 15 15 15 16 18 20 22 22 19 16 13 11 8 6 3 1 1 1 0 0 0 1 1 1 1 0 0
37 42 45 43 41 40 40 38 33 26 20 19 20 19 18 16 16 16 14 15 18 21 23 22 20 18 16 15 12 7 3 1 1 1 1 0 0 1 2 2 2 1 0
39 43 46 47 44 42 38 34 30 25 20 19 20 20 19 17 17 15 14 16 19 22 23 22 19 17 18 17 14 7 3 1 1 1 1 1 2 3 4 4 3 2 1
45 49 53 53 52 48 41 34 31 29 25 24 24 22 21 19 17 15 16 21 23 23 22 21 18 17 17 16 14 9 5 4 3 2 2 2 4 5 6 5 5 4 2
51 56 60 61 61 58 48 38 34 35 35 33 31 29 27 25 21 20 22 26 28 26 25 23 20 17 15 13 12 12 10 9 8 7 6 4 4 5 5 4 4 4 4
59 62 65 68 68 64 56 47 43 43 43 40 36 34 33 31 30 29 31 32 33 34 32 28 23 18 13 8 7 10 13 13 13 13 11 6 3 2 2 2 1 2 3
67 68 68 71 71 67 63 58 53 50 46 41 36 33 33 33 33 34 36 37 37 37 35 30 25 20 13 5 2 5 11 14 15 16 14 9 4 2 2 1 0 0 1
67 67 68 70 71 67 64 61 57 53 48 40 34 32 32 32 33 34 37 39 38 36 35 33 29 22 13 5 1 2 7 12 14 15 13 11 7 3 2 2 0 0 0
62 61 62 66 67 63 60 57 54 53 48 40 35 33 33 33 34 33 34 38 38 37 35 34 32 24 14 5 1 1 4 8 11 11 9 7 5 2 1 1 0 1 1
52 52 54 58 60 58 55 53 52 50 46 41 38 36 36 36 35 35 34 36 38 36 32 30 29 23 13 5 1 1 3 6 7 7 5 3 2 0 0 0 0 1 2
39 41 45 48 51 52 50 49 48 46 42 40 40 38 35 33 35 37 36 35 34 31 27 24 21 16 10 4 0 0 1 3 4 4 3 2 0 0 0 0 0 1 1
26 29 33 36 40 43 42 42 41 39 37 36 36 33 28 26 28 32 31 28 26 23 21 18 14 10 7 3 0 0 0 1 2 2 2 1 0 0 0 0 0 0 0
17 18 21 23 26 30 31 32 32 31 29 28 27 24 20 17 19 20 20 17 15 14 13 11 9 7 6 3 1 0 0 0 0 1 1 1 0 0 0 0 0 0 0
12 13 13 14 16 18 20 22 23 22 21 20 19 18 14 11 9 9 9 7 6 5 5 5 4 4 3 2 0 0 0 0 0 0 0 0 0 0 0 0 0 0 0
9 10 11 11 12 13 14 14 15 15 14 14 13 11 8 5 3 2 2 2 1 1 1 1 1 1 1 0 0 0 0 0 0 0 0 0 0 0 0 0 0 0 0
6 8 10 10 11 11 11 11 11 12 11 10 8 6 3 1 0 0 0 0 0 0 0 0 0 0 0 0 0 0 0 0 0 0 0 0 0 0 0 0 0 0 0
Wind_Speed
10 10 10 11 11 10 11 11 11 10 8 6 6 5 5 4 3 3 6 6 5 5 2 3 3 1 2 2 3 2 2 1 1 1 2 2 2 2 3 1 2 3 4
11 11 11 11 11 11 11 11 11 11 10 7 6 5 5 4 4 3 5 5 5 5 4 3 3 2 2 2 1 1 0 2 2 1 1 2 1 1 3 3 2 3 3
13 13 12 12 12 12 12 11 11 11 10 8 6 5 4 3 4 4 4 4 5 5 3 4 2 3 3 3 2 2 2 1 2 2 0 0 1 2 2 3 3 3 2
12 13 13 12 12 12 12 10 11 11 10 9 8 9 7 6 6 5 4 5 4 4 4 4 3 2 1 4 3 3 1 1 2 1 1 0 1 1 2 2 2 3 3
10 11 12 11 11 11 11 11 11 10 10 10 10 9 7 6 5 5 6 5 4 4 4 4 4 2 1 3 1 3 1 1 2 1 1 1 1 1 2 3 3 3 3
10 11 10 10 10 10 11 11 11 10 10 11 10 10 9 8 8 8 7 6 4 4 5 5 4 3 2 3 2 2 2 1 2 2 2 1 1 2 1 2 3 3 3
10 10 11 10 10 11 11 11 12 10 10 11 10 10 9 9 8 8 8 6 5 5 5 5 5 4 3 3 3 2 2 2 1 2 2 2 1 0 0 0 1 2 2
10 10 10 9 9 10 10 11 11 10 10 10 9 8 8 6 6 6 6 6 5 5 6 6 6 5 5 5 4 3 3 2 2 3 2 2 3 2 1 1 0 1 2
11 11 10 10 10 11 10 11 11 10 10 10 9 8 7 6 6 6 6 4 4 6 8 7 6 6 5 4 5 3 3 3 3 3 3 2 2 2 2 1 1 1 1
12 11 11 10 10 10 10 10 10 10 9 10 9 8 7 6 6 5 5 4 4 4 7 7 7 6 6 5 4 4 4 3 3 3 2 2 2 2 1 1 2 1 1
12 12 11 9 10 10 10 10 10 10 9 9 7 7 7 7 6 5 5 4 4 5 6 6 6 6 6 6 5 5 5 5 5 4 3 3 3 2 2 1 2 2 2
12 12 12 11 10 10 11 10 10 10 9 8 7 7 7 7 6 6 5 5 5 5 6 6 6 7 7 6 6 6 6 6 6 5 5 4 4 4 3 2 2 2 1
11 11 11 11 10 9 10 11 11 11 10 9 8 7 7 7 6 6 5 5 5 5 6 7 7 6 6 6 6 6 5 5 5 5 5 4 4 4 3 3 3 2 3
10 10 10 9 9 9 9 10 10 10 11 11 10 9 8 8 7 6 6 6 5 5 6 6 6 6 5 5 5 5 5 4 4 4 4 4 4 4 4 4 3 3 3
10 10 9 9 9 9 9 9 9 8 9 10 10 9 8 7 7 7 6 6 6 7 5 5 5 4 4 4 4 4 5 4 4 3 3 4 4 4 4 4 2 3 3
9 8 8 8 8 8 8 8 8 8 8 8 9 9 8 8 7 7 7 6 6 5 5 5 4 4 4 5 5 4 4 3 4 4 3 4 4 4 5 5 4 2 3
8 8 7 8 7 7 6 7 7 7 7 7 7 7 7 7 7 8 7 6 6 5 4 4 4 3 2 2 4 4 3 3 3 3 3 4 3 3 3 5 5 5 7
6 7 6 7 7 6 7 6 7 7 6 6 6 6 6 6 6 5 5 5 4 4 4 4 4 3 2 3 3 4 3 3 2 2 2 2 2 2 1 3 4 4 5
7 6 6 6 6 6 6 6 6 6 6 6 4 4 4 5 5 4 3 3 3 3 3 3 3 3 2 2 3 3 3 2 2 2 1 1 1 1 1 2 3 3 3
8 7 7 7 6 5 6 7 6 6 5 5 4 4 4 4 5 4 3 3 3 3 3 3 2 3 3 4 4 2 1 1 1 1 2 3 2 1 2 2 2 4 4
9 8 9 8 7 6 7 8 8 7 6 6 7 6 5 5 5 4 4 4 4 4 4 4 4 4 4 5 5 3 1 1 1 1 1 2 2 1 2 2 3 4 4
10 10 10 10 8 8 9 10 9 8 8 9 9 8 7 6 6 6 5 4 4 5 4 4 4 4 4 6 4 4 3 4 2 2 2 2 1 2 2 2 3 4 4
10 10 11 11 10 10 10 11 9 8 9 10 10 9 9 8 7 7 6 5 4 4 4 4 4 5 5 5 6 4 4 4 3 3 3 2 2 3 2 3 3 3 2
10 10 11 12 11 10 11 10 9 9 10 10 9 9 9 9 9 8 7 7 6 6 5 5 5 5 5 5 5 4 3 3 3 3 3 3 3 2 2 1 1 1 2
9 10 10 11 11 10 10 9 8 9 9 9 8 9 9 9 9 10 9 9 8 6 6 6 6 5 5 4 5 4 4 4 3 4 2 1 1 1 1 1 1 2 2
10 11 11 11 11 11 10 9 9 8 8 7 7 7 7 6 7 8 9 14 11 12 13 11 8 6 6 4 6 7 6 6 5 3 2 3 3 3 4 3 3 3 3
Wind_Direction
157 152 155 156 160 161 163 164 166 162 161 164 168 167 165 165 156 153 154 159 156 156 164 128 149 202 110 121 149 137 156 214 191 130 144 175 172 145 131 172 149 160 154
152 153 156 159 163 164 165 165 166 165 171 170 165 167 163 170 168 162 149 156 150 156 168 135 168 142 119 124 123 100 260 216 176 204 184 170 157 164 176 162 174 159 162
160 160 164 166 166 167 170 172 170 171 175 167 160 161 155 162 160 152 152 159 160 171 155 150 162 156 170 155 180 192 232 269 184 204 272 212 162 160 166 181 160 141 148
158 161 165 169 170 171 171 168 170 173 171 168 170 169 172 173 170 159 158 162 167 169 161 158 145 180 159 142 196 185 230 252 254 194 168 188 99 125 151 198 162 167 171
153 157 164 168 171 171 169 168 170 173 173 177 175 175 179 172 161 154 155 166 167 173 177 163 157 175 170 149 135 127 245 260 273 276 195 187 170 241 182 176 177 187 179
148 152 158 160 169 169 169 167 168 172 174 179 178 182 178 168 162 160 164 170 166 180 182 167 160 179 173 141 142 148 204 301 343 345 329 185 193 230 215 175 185 188 183
147 153 159 164 167 170 171 169 167 169 171 176 179 182 177 172 167 165 171 177 172 177 179 172 167 181 157 155 167 178 218 211 275 307 309 330 313 298 333 144 214 175 166
148 154 159 163 167 170 167 163 164 167 170 173 176 178 172 172 172 175 175 186 181 174 168 165 171 180 175 180 171 191 203 193 211 253 295 326 319 331 323 305 309 243 209
149 153 158 165 168 169 167 165 161 162 168 171 170 172 174 179 175 175 183 180 175 168 165 171 175 182 182 180 164 216 203 164 199 233 222 249 282 286 316 329 334 307 283
153 152 156 163 164 162 159 158 159 164 168 166 168 172 175 174 165 169 178 172 178 165 162 175 178 180 181 184 185 210 194 188 212 239 243 225 273 279 260 287 303 304 289
154 151 154 156 154 154 155 158 157 159 163 168 170 164 167 169 165 170 172 165 173 165 174 181 181 186 186 187 196 222 195 196 212 224 218 222 260 300 308 264 248 256 256
150 150 151 152 152 156 157 159 158 162 166 166 163 162 164 167 171 175 171 167 176 182 185 190 190 195 193 190 194 218 215 201 208 218 220 214 222 221 262 292 291 275 263
146 147 148 151 155 154 153 158 162 165 167 164 166 165 169 173 176 181 177 176 181 190 195 195 195 199 195 192 201 210 224 217 214 215 216 218 226 222 228 231 266 286 278
143 143 147 152 153 152 154 158 164 166 169 169 171 172 177 181 179 182 183 182 179 188 198 195 197 199 199 196 202 204 214 220 222 223 221 221 220 219 229 240 243 264 284
144 145 152 151 150 150 153 160 165 166 167 170 171 175 179 180 180 182 186 186 186 196 192 189 191 195 197 203 204 209 214 212 219 225 225 227 222 222 220 235 233 245 249
146 144 144 142 145 149 153 155 160 164 163 171 175 173 176 179 183 186 189 189 191 195 188 191 187 192 211 209 193 201 227 207 212 224 228 234 225 221 221 231 239 236 249
132 135 145 142 142 149 149 153 158 159 162 170 174 171 176 181 185 190 187 188 189 190 186 185 181 188 206 175 170 195 232 233 221 223 230 248 242 202 212 227 237 245 246
114 121 129 130 138 144 148 149 152 152 155 162 174 170 173 180 180 185 186 184 180 181 183 183 182 170 172 154 166 192 213 241 243 229 226 227 283 305 259 235 235 238 242
88 95 107 121 129 137 140 137 139 145 153 159 160 158 168 169 164 170 170 165 167 170 168 157 160 157 145 132 147 175 203 208 236 242 246 222 161 9 332 272 272 270 264
71 74 88 90 91 102 126 123 117 115 118 121 123 127 134 139 141 144 144 145 144 142 140 114 102 102 95 93 96 132 214 227 236 173 111 74 83 58 2 305 288 281 288
83 79 80 77 76 82 95 100 97 92 94 97 94 92 97 106 108 110 109 112 114 116 118 111 100 98 93 100 94 92 42 0 359 29 87 83 69 37 352 297 281 281 294
80 79 77 71 67 74 83 85 81 80 82 83 81 78 74 78 85 89 92 101 113 116 115 110 101 90 82 76 82 78 49 13 12 17 36 44 9 319 299 285 293 306 301
76 75 78 73 65 66 75 81 77 80 84 83 79 75 71 66 64 70 75 77 75 82 89 92 89 78 69 63 59 61 46 20 15 21 29 5 293 287 269 247 277 298 297
79 80 81 78 72 69 73 77 77 80 84 85 83 80 75 70 61 54 55 58 52 54 60 68 72 75 63 46 32 35 36 25 25 1 336 293 266 277 309 305 262 250 287
83 82 82 84 80 76 74 74 78 82 83 84 86 87 82 77 71 63 50 57 51 55 63 61 61 59 60 37 25 25 19 4 10 336 311 327 7 12 6 355 354 342 348
87 84 82 83 81 79 75 71 72 77 81 84 81 83 89 91 93 92 79 55 62 65 68 68 74 77 71 53 33 25 8 358 359 351 356 12 13 12 7 357 354 3 4